Regional Weather Roundup
Issued by NWS Grand Forks, ND

Home | Current Version | Previous Version | Text Only | Print | Product List | Glossary Off
Versions: 1 2 3 4 5 6 7 8 9 10 11 12 13 14 15 16 17 18 19 20 21 22 23 24 25 26 27 28 29 30 31 32 33 34 35 36 37 38 39 40 41 42 43 44 45 46 47 48 49 50

041
ASUS43 KFGF 260431
RWRFGF
PRAIRIE TO PINES  WEATHER ROUNDUP
NATIONAL WEATHER SERVICE EASTERN NORTH DAKOTA/GRAND FORKS ND
1100 PM CDT FRI MAY 25 2018

 **SATELLITE DATA USED TO AUGMENT SKY COVER AT AUTOMATED STATIONS**
 *****  WEATHER ACROSS EASTERN NORTH DAKOTA  *****

CITY           SKY/WX    TMP DP  RH WIND       PRES   REMARKS
GRAND FORKS    FAIR      70  48  45 W7        29.58R
GRAND FRKS AFB FAIR      73  47  38 NW7       29.60R
GRAND FRKS NWS   N/A     80  49  34 NW6       29.56R
DEVILS LAKE    FAIR      68  53  58 W9        29.65R
FARGO          FAIR      75  52  44 W8        29.60R
WAHPETON ARPT  FAIR      77  43  29 SW10      29.64S
$$

 ***** WEATHER ACROSS CENTRAL AND WESTERN NORTH DAKOTA  *****

CITY           SKY/WX    TMP DP  RH WIND       PRES   REMARKS
BISMARCK       FAIR      71  52  50 W5        29.72R
MINOT          FAIR      76  43  30 W12       29.67R
JAMESTOWN      FAIR      70  54  56 W7        29.66S
MINOT AFB      FAIR      65  41  41 W9        29.65R
GARRISON         N/A     73  46  38 W9        29.70S
WILLISTON      FAIR      69  51  52 W9        29.73R
DICKINSON      FAIR      61  49  64 W8        29.78R
HETTINGER      FAIR      59  49  69 NW3       29.84R
$$

 *****  OTHER AIRPORT OBSERVATIONS IN OUR AREA  *****

CITY           SKY/WX    TMP DP  RH WIND       PRES   REMARKS
WALHALLA       FAIR      66  59  77 CALM      29.60S
GRAFTON AIRPOR FAIR      72  55  56 N7        29.61R
VALLEY CITY AR FAIR      72  52  49 W9        29.67S
CANDO          FAIR      66  46  48 NW7       29.66S
CAVALIER APRT    N/A     68  55  64 NW5       29.59S
GWINNER          N/A     72  52  49 SW8       29.66S
SHEYENNE NWR     N/A     69  52  53 W6        29.95S
ROLLA          FAIR      63  48  59 CALM      29.66S
 ***** THE ABOVE OBSERVATIONS ARE NON NWS ARE NOT QUALITY
       CONTROLLED AND MAY MIS-REPORT RAIN FOR SNOW...
$$

  *****  WEATHER ACROSS NORTHERN MINNESOTA  *****

CITY           SKY/WX    TMP DP  RH WIND       PRES   REMARKS
FLAG ISLAND    FAIR      64  57  77 E6        29.56F
WARROAD        FAIR      66  61  82 CALM      29.58S
ROSEAU         FAIR      64  57  77 S5        29.58S
HALLOCK        FAIR      72  55  56 NW5       29.58R
THF RVR FALLS  FAIR      72  57  59 SW3       29.60R
BAUDETTE         N/A    N/A N/A N/A MISG      29.58F
WASKISH        FAIR      68  57  68 CALM      29.60R
CROOKSTON      FAIR      70  55  60 W6        29.60R
STEPHEN NDAWN    N/A     72  54  53 N3          N/A
GREENBUSH NDAW   N/A     66  61  82 NW3         N/A
$$
  *****  WEATHER ACROSS CENTRAL AND WEST MINNESOTA  *****

CITY           SKY/WX    TMP DP  RH WIND       PRES   REMARKS
FOSSTON        FAIR      68  54  60 S9        29.62R
BEMIDJI        FAIR      67  53  59 CALM      29.63S
PARK RAPIDS    FAIR      72  55  55 CALM      29.64S
ELBOW LAKE     FAIR      70  52  52 W5        29.67S
WADENA         FAIR      70  57  64 S3        29.65S
DETROIT LAKES  FAIR      70  55  60 CALM      29.65S
MOORHEAD       FAIR      75  48  38 W7        29.62R
FERGUS FALLS   FAIR      72  54  53 S5        29.60S
MORRIS MN      FAIR      72  52  49 W6        29.67S
STAPLES        FAIR      66  55  68 S3        29.66S
$$
  *****  WEATHER ELSEWHERE ACROSS MINNESOTA  *****

CITY           SKY/WX    TMP DP  RH WIND       PRES   REMARKS
DULUTH         FAIR      70  60  70 CALM      29.66R
INTRNTL FALLS  MOCLDY    68  60  75 N5        29.60S
ELY            FAIR      63  55  77 CALM      29.64S
CLOQUET        FAIR      72  57  60 SW5       29.65F
WHEATON        FAIR      73  54  49 SW7       29.67F
BRAINERD       FAIR      68  55  63 S5        29.65F
HIBBING        FAIR      58  54  86 CALM      29.64S
ALEXANDRIA     FAIR      72  61  68 SW5       29.69R
SAINT CLOUD    FAIR      68  59  73 S3        29.68R
MINNEAPOLIS    FAIR      74  60  61 S7        29.71R
$$

  *****  WEATHER ACROSS SOUTH DAKOTA  *****

CITY           SKY/WX    TMP DP  RH WIND       PRES   REMARKS
SIOUX FALLS    FAIR      68  61  78 CALM      29.75R
BROOKINGS      FAIR      72  55  55 SW3       29.75R
WATERTOWN      FAIR      69  56  62 W6        29.73R
HURON          FAIR      73  58  59 W6        29.73R
SISSETON         N/A     75  52  44 W9        29.66S
ABERDEEN       FAIR      66  53  63 SW7       29.71R
MITCHELL       FAIR      73  58  59 W7        29.75R
PIERRE         FAIR      69  60  73 W6        29.77R
MOBRIDGE       FAIR      69  57  65 NW6       29.73R
RAPID CITY     FAIR      62  56  80 NE3       29.88S
$$

  *****  SOME WEATHER IN NEARBY STATES *****

CITY           SKY/WX    TMP DP  RH WIND       PRES   REMARKS
GLASGOW MT     FAIR      75  45  34 W5        29.75R
GREAT FALLS MT LGT RAIN  68  46  45 W13G32    29.84R
CHEYENNE WY    FAIR      67  43  41 S5        30.07R
SCOTTSBLUFF NE FAIR      69  58  67 E9        29.93R
OMAHA NE       FAIR      75  66  73 NW3       29.73S
DES MOINES IA  FAIR      78  65  63 S9        29.75R
DAVENPORT IA   RAIN      64  62  93 NE9       29.87R FOG
CHICAGO IL     CLOUDY    77  64  64 SW10      29.79R
EAU CLAIRE WI  FAIR      64  61  90 SW6       29.71R
LA CROSSE WI   LGT RAIN  69  62  78 W10G23    29.71F
$$

  *****  SOME NATIONAL WEATHER *****

CITY           SKY/WX    TMP DP  RH WIND       PRES   REMARKS
LA GUARDIA NY  FAIR      79  60  52 SW13      29.83F
RALEIGH NC     FAIR      73  69  87 SW8       30.02R
ATLANTA GA     CLOUDY    72  69  90 SE6       30.00S
NEW ORLEANS LA FAIR      77  72  84 CALM      29.94R
OKLAHOMA CITY  FAIR      72  63  73 S9        29.87R
ALBUQUERQUE NM FAIR      75  12   9 SE10      30.03R
SALT LAKE CITY FAIR      79  38  22 CALM      29.81R
LOS ANGELES CA FAIR      62  49  62 W22G30    30.05R
BOISE ID       FAIR      62  51  67 NW14      29.83R
SEATTLE WA     CLOUDY    62  43  49 NW3       30.03R
$$

*** WEATHER ACROSS MANITOBA...SASKATCHEWAN AND ONTARIO ***
                ***ONTARIO***

CITY           SKY/WX    TMP DP  RH WIND       PRES   REMARKS
GERALDTON      TSTM      57  55  94 E20       29.67F
THUNDER BAY    PTCLDY    52  50  93 E6        29.60S
SIOUX LOOKOUT  MOCLDY    59  59 100 NE3       29.61R
TORONTO        CLEAR     73  46  38 SW13G20   29.76S
BIG TROUT LK   CLEAR     48  39  71 E10G20    29.82R
PICKLE LAKE    NOT AVBL
DRYDEN         MOCLDY    68  55  64 W18G29    29.65R
KENORA         MOCLDY    61  59  94 S8        29.59S
$$
                *** MANITOBA***

CITY           SKY/WX    TMP DP  RH WIND       PRES   REMARKS
BRANDON        PTCLDY    66  59  77 NW9       29.61S
DAUPHIN        CLOUDY    61  61 100 SE3       29.58S FOG
ISLAND LAKE    CLOUDY    55  46  71 E13       29.71F
PILOT MOUND      N/A     63  54  72 S3          N/A
THE PAS        LGT RAIN  50  48  93 E5        29.69R FOG
THOMPSON       MOCLDY    46  37  71 NE9       29.79R
WINNIPEG       MOCLDY    63  59  88 N3        29.58R
LYNN LAKE      CLOUDY    54  39  58 E8        29.74S
CHURCHILL      FLURRIES  28  27  93 SE14G22   30.03F WCI  17
GILLAM         PTCLDY    34  30  86 NE10G17   29.89S
$$
                ***SASKATCHEWAN***

CITY           SKY/WX    TMP DP  RH WIND       PRES   REMARKS
ESTEVAN        PTCLDY    63  48  59 NW10      29.69R
KINDERSLEY     PTCLDY    64  50  59 NE9       29.72R
LLOYDMINSTER   PTCLDY    63  50  63 SE6       29.70R
PRINCE ALBERT  MOCLDY    61  59  94 NE8       29.68R
REGINA         CLEAR     61  54  77 NW7       29.69R
YORKTON        PTCLDY    63  57  82 W8        29.63R
N. BATTLEFORD  CLEAR     59  52  77 NE5       29.71R
LA RONGE       DRIZZLE   50  50 100 E3        29.71R FOG
SASKATOON      CLEAR     61  55  82 N6        29.70S
SWIFT CURRENT  CLEAR     70  43  37 CALM      29.74R
$$
NOTE: THESE ARE AUTOMATED STATIONS WITH LIMITED QUALITY CONTROL
      "FAIR" INDICATES FEW OR NO CLOUDS BELOW 12,000 FEET WITH NO
      SIGNIFICANT WEATHER AND/OR OBSTRUCTIONS TO VISIBILITY.
      SKY/WX - SKY CONDITION AND SIGNIFICANT WEATHER.
      TMP - AIR TEMPERATURE.    DP   - DEWPOINT TEMPERATURE.
      RH  - RELATIVE HUMIDITY.  PRES - PRESSURE.
      HX  - HEAT INDEX.         WCI  - WIND CHILL INDEX.
$




USA.gov is the U.S. government's official web portal to all federal, state and local government web resources and services.